EW2348 Weather Reports


Display with metric or nautical units.
time (UTC)temp
F
wind
direction
speed
MPH
gust
MPH
rain 1hr
in
rain 24hr
in
rain mn
in
humidity
%
barometer
mb
20141024111005 44 100 0.0 4.0 0.00 0.00 0.00 45 1019.6
20141024110006 44 109 2.0 4.0 0.00 0.00 0.00 46 1019.5
20141024104006 43 90 0.0 2.0 0.00 0.00 0.00 52 1019.7
20141024103005 43 120 0.0 1.0 0.00 0.00 0.00 49 1019.5
20141024102005 43 90 0.0 2.0 0.00 0.00 0.00 49 1019.6
20141024101005 43 0 0.0 0.0 0.00 0.00 0.00 50 1019.6
20141024095005 42 0 0.0 0.0 0.00 0.00 0.00 54 1019.6
20141024094005 42 0 0.0 0.0 0.00 0.00 0.00 53 1019.7
20141024091004 42 359 0.0 2.0 0.00 0.00 0.00 57 1019.6
20141024090005 42 355 1.0 3.0 0.00 0.00 0.00 65 1019.5
20141024085004 42 45 0.0 2.0 0.00 0.00 0.00 72 1019.4
20141024084004 42 0 0.0 0.0 0.00 0.00 0.00 71 1019.4
20141024083004 42 1 0.0 2.0 0.00 0.00 0.00 72 1019.5
20141024082004 42 1 0.0 2.0 0.00 0.00 0.00 77 1019.5
20141024081004 42 314 0.0 1.0 0.00 0.00 0.00 80 1019.5
20141024080004 42 282 0.0 1.0 0.00 0.00 0.00 82 1019.4
20141024075003 43 125 0.0 1.0 0.00 0.00 0.00 83 1019.2
20141024072018 44 8 0.0 2.0 0.00 0.00 0.00 86 1019.6
20141024071019 44 101 0.0 2.0 0.00 0.00 0.00 86 1019.5
20141024070019 44 135 0.0 2.0 0.00 0.00 0.00 87 1019.4
20141024064018 44 1 2.0 2.0 0.00 0.00 0.00 88 1019.3
20141024063018 45 1 0.0 3.0 0.00 0.00 0.00 89 1019.4
20141024062018 44 1 2.0 2.0 0.00 0.00 0.00 90 1019.3
20141024060018 46 90 0.0 1.0 0.00 0.00 0.00 88 1019.2
20141024052017 45 133 2.0 27.0 0.00 0.00 0.00 90 1019.5
20141024051017 46 135 0.0 3.0 0.00 0.00 0.00 90 1019.4
20141024043016 46 42 1.0 2.0 0.00 0.00 0.00 90 1019.3
20141024042017 46 297 0.0 1.0 0.00 0.00 0.00 89 1019.4
20141024041017 47 1 0.0 2.0 0.00 0.00 0.00 87 1019.3
20141024040017 47 1 1.0 2.0 0.00 0.00 0.00 87 1019.4
20141024035017 48 135 0.0 2.0 0.00 0.00 0.00 85 1019.5
20141024034017 49 105 0.0 2.0 0.00 0.00 0.00 84 1019.6
20141024033016 49 126 0.0 2.0 0.00 0.00 0.00 85 1019.6
20141024032016 49 65 1.0 2.0 0.00 0.00 0.00 84 1019.5
20141024031016 49 84 0.0 2.0 0.00 0.00 0.00 84 1019.4
20141024030016 49 90 1.0 2.0 0.00 0.00 0.00 87 1019.6
20141024024016 47 45 0.0 1.0 0.00 0.00 0.00 86 1019.8
20141024023015 47 0 0.0 0.0 0.00 0.00 0.00 86 1019.8
20141024022016 48 4 0.0 2.0 0.00 0.00 0.00 84 1020.0
20141024021016 48 1 1.0 2.0 0.00 0.00 0.00 84 1020.0
20141024020016 49 0 0.0 0.0 0.00 0.00 0.00 81 1020.2
20141024015015 49 0 0.0 0.0 0.00 0.00 0.00 79 1020.1
20141024013015 50 1 0.0 2.0 0.00 0.00 0.00 76 1020.2
20141024012015 50 0 0.0 0.0 0.00 0.00 0.00 74 1020.3
20141024011015 50 0 0.0 0.0 0.00 0.00 0.00 73 1020.4
20141024010014 51 0 0.0 0.0 0.00 0.00 0.00 71 1020.3
20141024005014 51 0 0.0 0.0 0.00 0.00 0.00 71 1020.2
20141024004015 51 1 0.0 2.0 0.00 0.00 0.00 68 1020.3
20141024003014 52 1 1.0 2.0 0.00 0.00 0.00 69 1020.2
20141024002015 52 0 0.0 0.0 0.00 0.00 0.00 69 1020.2
20141024001014 52 0 0.0 0.0 0.00 0.00 0.00 68 1020.2
20141024000014 52 1 0.0 2.0 0.00 0.00 0.00 67 1020.1
20141023235014 53 1 0.0 1.0 0.00 0.00 0.00 66 1020.4
20141023233014 53 270 0.0 2.0 0.00 0.00 0.00 65 1020.2
20141023232014 54 0 0.0 0.0 0.00 0.00 0.00 64 1020.3
20141023231013 54 0 0.0 0.0 0.00 0.00 0.00 64 1020.3
20141023230013 54 0 0.0 0.0 0.00 0.00 0.00 63 1020.1
20141023223013 57 164 0.0 2.0 0.00 0.00 0.00 60 1020.3
20141023221012 60 0 0.0 0.0 0.00 0.00 0.00 54 1020.0
20141023220013 61 314 0.0 2.0 0.00 0.00 0.00 51 1019.9
20141023214012 68 341 1.0 2.0 0.00 0.00 0.00 43 1019.8
20141023213012 69 330 0.0 3.0 0.00 0.00 0.00 43 1019.9
20141023212012 69 336 0.0 4.0 0.00 0.00 0.00 45 1019.9
20141023204012 70 333 2.0 5.0 0.00 0.00 0.00 42 1020.3
20141023203011 70 326 2.0 6.0 0.00 0.00 0.00 43 1020.4
20141023201012 70 268 2.0 4.0 0.00 0.00 0.00 40 1020.7
20141023200012 71 209 0.0 3.0 0.00 0.00 0.00 45 1020.7
20141023193011 66 169 0.0 8.0 0.00 0.00 0.00 51 1020.6
20141023192011 67 208 2.0 6.0 0.00 0.00 0.00 48 1020.8
20141023185010 66 134 2.0 5.0 0.00 0.00 0.00 47 1021.3
20141023183011 65 171 1.0 6.0 0.00 0.00 0.00 51 1021.4
20141023181010 64 62 1.0 6.0 0.00 0.00 0.00 53 1021.8
20141023180010 66 336 2.0 5.0 0.00 0.00 0.00 59 1022.0
20141023173011 64 324 2.0 4.0 0.00 0.00 0.00 51 1022.6
20141023171009 63 308 2.0 4.0 0.00 0.00 0.00 53 1022.9
20141023165009 64 143 0.0 3.0 0.00 0.00 0.00 54 1023.0
20141023163010 62 310 1.0 4.0 0.00 0.00 0.00 56 1023.4
20141023160009 60 305 2.0 4.0 0.00 0.00 0.00 59 1023.8
20141023155009 60 200 2.0 8.0 0.00 0.00 0.00 55 1023.9
20141023152009 59 344 0.0 5.0 0.00 0.00 0.00 64 1023.9
20141023151010 58 347 2.0 5.0 0.00 0.00 0.00 65 1024.0
20141023143008 54 314 2.0 5.0 0.00 0.00 0.00 70 1024.1
20141023142008 52 319 2.0 5.0 0.00 0.00 0.00 76 1024.1
20141023141008 47 294 1.0 2.0 0.00 0.00 0.00 85 1024.2
20141023140008 46 294 0.0 3.0 0.00 0.00 0.00 84 1024.1
20141023134008 45 290 1.0 4.0 0.00 0.00 0.00 84 1024.1
20141023132007 44 303 1.0 2.0 0.00 0.00 0.00 80 1024.0